Location: Krasnoyarskiy Pitomnik
(51.1333°N, 71.6167°E)
Time: 10:49:45
(UTC+00:00)

ARIANE 6 FM1 Upper Stage - Visible Passes

Search period start: 21 January 2026 00:00
Search period end: 31 January 2026 00:00
Orbit: 522 x 610 km, 62.0° (Epoch: 20 January)

Date Brightness Start Highest point End Pass type
(mag) Time Alt. Az. Time Alt. Az. Time Alt. Az.
21 Jan 4.7 14:24:27 10° SSW 14:25:37 18° S 14:25:37 18° S visible
22 Jan 4.0 14:24:21 10° SSW 14:26:30 28° SSW 14:26:30 28° SSW visible
23 Jan 4.7 12:48:39 10° SE 12:50:04 12° ESE 12:51:14 10° E visible
23 Jan 3.3 14:24:22 10° SW 14:27:17 45° SSW 14:27:17 45° SSW visible
24 Jan 4.4 12:47:27 10° SSE 12:50:01 16° ESE 12:51:56 12° E visible
24 Jan 2.9 14:24:30 10° SW 14:27:59 64° WSW 14:27:59 64° WSW visible
25 Jan 4.0 12:46:47 10° S 12:50:00 23° ESE 12:52:33 13° ENE visible
25 Jan 2.9 14:24:42 10° WSW 14:28:35 62° NW 14:28:35 62° NW visible
26 Jan 3.6 12:46:24 10° S 12:50:00 31° SE 12:53:04 13° ENE visible
26 Jan 3.2 14:24:58 10° WSW 14:28:54 48° NW 14:29:06 47° NNW visible
27 Jan 3.1 12:46:10 10° SSW 12:50:01 43° SE 12:53:31 12° ENE visible
27 Jan 3.6 14:25:20 10° W 14:29:07 38° NNW 14:29:33 36° NNW visible
28 Jan 2.7 12:46:05 10° SSW 12:50:05 60° SE 12:53:54 11° NE visible
28 Jan 3.9 14:25:43 10° W 14:29:20 31° NNW 14:29:55 30° N visible
29 Jan 2.6 12:46:05 10° SW 12:50:09 83° SE 12:54:10 10° NE visible
29 Jan 4.2 14:26:09 10° W 14:29:35 26° NNW 14:30:14 25° N visible
30 Jan 2.7 12:46:12 10° SW 12:50:16 74° NW 12:54:15 10° NE visible
30 Jan 4.3 14:26:36 10° WNW 14:29:51 23° NNW 14:30:30 22° N visible
